Regional Weather Roundup
Issued by NWS Charleston, WV

Home | Current Version | Previous Version | Text Only | Print | Product List | Glossary Off
Versions: 1 2 3 4 5 6 7 8 9 10 11 12 13 14 15 16 17 18 19 20 21 22 23 24 25 26 27 28

000
ASUS41 KRLX 060810
RWRRLX
West Virginia Regional Weather Roundup
National Weather Service Charleston WV
400 AM EDT FRI MAY 06 2016

Note: "fair" indicates few or no clouds below 12,000 feet with no
significant weather and/or obstructions to visibility.

WVZ003-060900-
Northern Panhandle of West Virginia

CITY           SKY/WX    TMP DP  RH WIND       PRES   REMARKS
WHEELING       CLOUDY    49  42  77 NW8       29.79S
$$

WVZ009-060900-
Northwest West Virginia

CITY           SKY/WX    TMP DP  RH WIND       PRES   REMARKS
PARKERSBURG    CLOUDY    50  44  80 N5        29.83R
$$

WVZ006-060900-
Western West Virginia

CITY           SKY/WX    TMP DP  RH WIND       PRES   REMARKS
HUNTINGTON     CLOUDY    50  43  77 NW5       29.83R
$$

WVZ015-060900-
West Central West Virginia

CITY           SKY/WX    TMP DP  RH WIND       PRES   REMARKS
CHARLESTON     CLOUDY    50  45  83 W3        29.79S
$$

WVZ022-031-060900-
North Central West Virginia

CITY           SKY/WX    TMP DP  RH WIND       PRES   REMARKS
CLARKSBURG     CLOUDY    49  46  90 N6        29.75S
MORGANTOWN     CLOUDY    50  43  77 N7        29.77R
$$

WVZ025-035-042-045-060900-
Southern West Virginia

CITY           SKY/WX    TMP DP  RH WIND       PRES   REMARKS
BECKLEY        CLOUDY    46  44  93 NW10      29.76S
LOGAN          NOT AVBL
BLUEFIELD      CLOUDY    44  42  93 NW8       29.77R
LEWISBURG      LGT RAIN  46  44  94 NW3       29.72S
$$

WVZ047-060900-
Northern Mountains of West Virginia

CITY           SKY/WX    TMP DP  RH WIND       PRES   REMARKS
ELKINS         CLOUDY    48  45  89 N3        29.74S
$$

WVZ052-060900-
Eastern Panhandle of West Virginia

CITY           SKY/WX    TMP DP  RH WIND       PRES   REMARKS
MARTINSBURG    LGT RAIN  51  48  89 N5        29.68S
PETERSBURG     CLOUDY    51  49  92 CALM      29.73S
$$




USA.gov is the U.S. government's official web portal to all federal, state and local government web resources and services.